Location: Argenteuil
(48.9394°N, 2.2367°E)
Time: 15:08:50
(UTC+00:00)

Daily predictions for brighter satellites

Satellite Brightness Start Highest point End
(mag) Time Altitude Azimuth Time Altitude Azimuth Time Altitude Azimuth
Cosmos 1814 Rocket 4.1 18:23:39 10° NNW 18:29:03 78° ENE 18:34:23 10° SSE
DMSP B5D2-2 4.5 18:24:18 10° NNE 18:29:21 42° E 18:34:20 10° SSE
COSMOS 2455 4.0 18:25:28 10° NNW 18:30:38 28° NE 18:35:46 10° E
IRS-1C Rocket 4.1 18:26:01 10° SSE 18:31:13 67° ENE 18:36:28 10° N
SKYMED 2 4.3 18:27:37 10° N 18:31:55 60° WNW 18:36:11 10° SSW
Cosmos 1745 Rocket 4.3 18:26:38 10° SSW 18:32:59 80° W 18:39:19 10° N
SeaSat 1 2.6 18:28:23 10° SE 18:33:13 59° NE 18:38:05 10° NNW
Cosmos 2344 4.0 18:26:43 10° SW 18:34:05 67° NW 18:42:11 10° NE
Okean O Rocket 3.3 18:30:52 10° SSW 18:34:59 38° W 18:39:07 10° NNW
ARGOS 3.6 18:29:50 10° S 18:35:10 70° WSW 18:40:33 10° NNW
Cosmos 1707 4.0 18:37:17 10° NNE 18:40:25 22° ENE 18:43:32 10° ESE
ERBS 3.5 18:37:51 10° S 18:40:29 22° SE 18:43:07 10° ENE
Cosmos 1743 2.7 18:38:01 10° S 18:41:52 88° WNW 18:45:45 10° N
Cosmos 1975 3.7 18:40:01 10° SSE 18:43:26 28° E 18:46:52 10° NNE
CSL-04 Debris 4.2 18:38:41 10° SSE 18:44:00 61° ENE 18:49:19 10° N
OBJECT-B 1.8 18:42:25 10° SE 18:45:11 27° ENE 18:47:58 10° N
Cosmos 1943 Rocket 3.7 18:42:44 10° SE 18:45:16 13° E 18:47:51 10° ENE
Cosmos 968 Rocket 4.0 18:40:45 10° SSE 18:45:29 36° ESE 18:50:16 10° NE
USA 215 3.9 18:40:06 10° SE 18:46:30 55° SW 18:52:56 10° WNW
Cosmos 1536 3.9 18:43:16 10° SSW 18:47:12 50° WNW 18:51:09 10° N
USA 305 2.8 18:43:23 10° SW 18:47:35 76° SSE 18:51:50 10° ENE
Lacrosse 5 rocket 3.0 18:43:52 10° WNW 18:47:57 30° N 18:51:55 10° ENE
Geosat 4.3 18:44:37 10° NNE 18:49:40 76° WNW 18:54:40 10° SW
ISS -1.7 18:50:23 10° SSE 18:51:46 12° SE 18:52:24 12° ESE
CZ-2C R/B 3.2 18:46:49 10° N 18:52:13 66° WNW 18:57:42 10° SSW
Cosmos 921 Rocket 3.0 18:48:19 10° NNW 18:52:42 68° ENE 18:56:57 10° SSE
Cosmos 1461 4.3 18:51:48 10° NNW 18:55:07 23° NE 18:57:53 12° E
SL-4 R/B 2.9 18:53:44 10° W 18:56:52 33° SSW 19:00:06 10° SSE
USA 307 2.8 18:54:04 10° WSW 18:58:17 81° SSE 19:02:32 10° ENE
Meteor 2-9 Rocket 4.3 18:57:42 10° S 19:03:27 64° E 19:09:15 10° NNE
Cosmos 1842 3.2 18:59:45 10° N 19:03:43 83° ENE 19:07:40 10° S
USA 281 4.2 18:59:49 10° NE 19:04:49 23° E 19:09:48 10° SSE
Cosmos 1689 Rocket 4.3 19:06:21 10° NE 19:06:35 11° ENE 19:06:35 11° ENE
SJ-6B 3.2 19:04:33 10° SE 19:08:30 47° ENE 19:12:29 10° N
Cosmos 1400 Rocket 4.0 19:07:16 13° SE 19:10:01 23° E 19:13:17 10° NE
Cosmos 2221 Rocket 3.7 19:06:44 10° NNW 19:11:12 81° W 19:15:36 10° S
Cosmos 1378 Rocket 3.6 19:08:03 10° N 19:12:23 56° ENE 19:16:43 10° SSE
ATLAS CENTAUR R/B 3.0 19:10:31 10° NNW 19:14:24 27° NE 19:17:09 16° E
USA 306 2.9 19:10:48 10° WSW 19:15:02 80° NNW 19:19:11 11° ENE
YAOGAN 1 4.2 19:12:03 10° SSW 19:16:03 36° W 19:20:04 10° NNW
Cosmos 1674 3.8 19:13:57 10° NNE 19:17:02 24° ENE 19:18:01 22° E
USA 308 2.9 19:12:59 10° WSW 19:17:14 82° NNW 19:21:18 11° ENE
COSMOS 2406 4.1 19:16:47 10° NW 19:22:22 50° WSW 19:27:52 10° S
Inspiration4 3.5 19:19:58 10° SSW 19:23:47 32° SE 19:25:24 24° ESE
Okean-O 3.6 19:20:44 10° S 19:25:00 48° W 19:29:20 10° NNW
Cosmos 1833 Rocket 4.0 19:20:43 10° NW 19:25:56 40° WSW 19:31:06 10° S
Cosmos 1674 Rocket 3.5 19:22:13 10° N 19:26:38 87° E 19:30:58 10° S
Meteor 2-12 Rocket 4.4 19:22:30 10° S 19:28:37 74° E 19:34:42 10° NNE
CZ-4B R/B 2.1 19:26:08 10° N 19:29:06 50° WNW 19:32:02 10° SSW
Meteor 1-21 4.3 19:23:21 10° NNW 19:29:06 86° WSW 19:34:44 10° S
In-Cosmos 22 4.0 19:24:18 10° N 19:29:37 68° ENE 19:34:24 13° SSE
USA 186 1.6 19:30:09 17° S 19:32:00 66° WSW 19:34:51 10° NNW
Cosmos 2074 Rocket 3.9 19:26:01 10° S 19:32:12 71° E 19:38:27 10° NNE
Lacrosse 4 Rocket 1.9 19:30:57 10° SW 19:34:56 59° NW 19:38:58 10° NNE
Cosmos 2082 Rocket 2.6 19:31:30 10° NNW 19:37:11 65° WSW 19:42:45 10° SSE
Cosmos 1932 4.4 19:31:00 10° SSW 19:37:13 70° SE 19:43:26 10° NE
SPOT 3 Rocket 4.4 19:36:01 25° E 19:37:50 31° ENE 19:42:19 10° N
CSL-04 Rocket 4.4 19:35:44 10° S 19:40:56 54° W 19:46:13 10° NNW
Resurs 01 Rocket 2.3 19:40:22 30° ESE 19:41:39 37° ENE 19:45:44 10° N
Okean 2 3.6 19:38:14 10° NNW 19:42:18 69° W 19:46:19 10° S
Cosmos 1340 3.3 19:45:19 10° NNW 19:49:00 55° W 19:52:08 14° S
CZ-4 R/B 4.3 19:48:43 10° WSW 19:50:46 14° W 19:52:48 10° WNW
CSL-04 DEB 4.2 19:46:56 10° NNE 19:50:57 72° ESE 19:54:53 10° S
Helios 1A Rocket 2.8 19:49:40 27° SSE 19:51:54 89° ENE 19:56:02 10° NNW
Cosmos 1782 Rocket 3.9 19:52:43 40° ESE 19:53:24 43° E 19:57:36 10° NNE
Cosmos 1733 Rocket 4.3 19:49:18 10° SSW 19:53:25 42° WNW 19:57:32 10° N
ARIANE 5 R/B 4.5 19:54:54 16° NE 19:54:54 16° NE 19:57:16 10° NNE
Ariane Rocket 2.9 19:53:08 29° SSE 19:55:46 71° ENE 20:00:51 10° N
Terra 3.8 19:56:16 13° NE 19:56:18 13° NE 19:58:31 10° NNE
ERS-1 Rocket 4.5 19:59:20 20° ENE 19:59:39 20° ENE 20:03:12 10° NNE
Cosmos 2278 Rocket 3.4 19:55:00 10° SW 20:00:25 45° NW 20:05:53 10° NNE
IRS-1A Rocket 4.3 19:57:02 22° SSE 20:00:53 86° ENE 20:06:48 10° NNW
Cosmos 2297 3.7 19:57:39 10° S 20:03:12 59° ESE 20:08:50 10° NE
Cosmos 1626 2.3 20:04:06 10° N 20:07:24 53° NE 20:07:24 53° NE
Cosmos 1346 Rocket 2.8 20:04:22 10° N 20:08:22 61° ENE 20:08:28 61° E
Resurs 1-3 3.7 20:06:22 29° S 20:08:32 72° WSW 20:12:56 10° NNW
Cosmos 2369 Rocket 3.7 20:12:19 21° ENE 20:12:19 21° ENE 20:14:30 10° NE
Cosmos 2184 Rocket 4.4 20:03:55 10° SSW 20:10:15 68° WNW 20:16:35 10° N
SeaSat 1 4.5 20:07:04 10° SSW 20:11:02 24° WSW 20:15:02 10° NW
MOS 1 4.4 20:08:02 23° S 20:11:45 77° WSW 20:17:29 10° NNW
Cosmos 1503 Rocket 3.8 20:08:26 10° SSW 20:13:39 77° ESE 20:18:51 10° NNE
ERBS 2.8 20:13:03 10° WSW 20:16:17 54° NNW 20:16:20 54° NNW
Cosmos 1707 4.4 20:12:48 10° NNW 20:16:20 33° W 20:19:15 14° SSW
SPOT 1/Viking Rocket 3.7 20:15:41 48° ESE 20:16:33 54° ENE 20:21:36 10° N
Landsat 7 3.7 20:16:04 52° SSE 20:17:14 80° ENE 20:22:01 10° NNW
COSMOS 2455 2.8 20:11:12 10° NW 20:17:16 83° WSW 20:19:34 40° SSE
OBJECT-B 3.4 20:14:55 10° SW 20:17:18 19° W 20:19:42 10° NW
Cosmos 962 Rocket 4.4 20:16:03 31° SSE 20:19:01 63° E 20:25:08 10° NNE
IGS 5A 3.4 20:19:04 61° S 20:19:45 82° WSW 20:23:56 10° NNW
Cosmos 1975 Rocket 2.9 20:17:13 10° N 20:21:39 83° E 20:22:05 71° SSE
Cosmos 1238 Rocket 4.3 20:16:13 10° SSW 20:22:46 67° WNW 20:28:52 10° N
Cosmos 1354 Rocket 3.8 20:20:00 10° SSW 20:25:16 81° ESE 20:30:32 10° NNE
USA 305 3.8 20:23:39 10° W 20:27:44 45° N 20:28:50 36° NNE
Lacrosse 5 rocket 1.8 20:23:22 10° NW 20:27:51 54° NNE 20:28:07 54° NE
Cosmos 2154 Rocket 4.2 20:21:39 10° SSW 20:27:58 71° W 20:34:21 10° N
ISS -1.3 20:24:43 10° SW 20:25:27 15° SW 20:25:27 15° SW
Cosmos 1943 Rocket 2.0 20:22:31 10° SSW 20:28:04 80° ESE 20:33:43 10° NNE
Cosmos 1461 3.1 20:30:31 10° NW 20:34:13 59° W 20:34:13 59° W
EO 1 Delta rocket 4.4 20:36:54 37° SSW 20:38:29 56° W 20:43:22 10° NNW
USA 307 3.8 20:34:25 10° W 20:38:29 44° N 20:39:08 41° NNE
Cosmos 1025 Rocket 3.2 20:36:36 10° N 20:40:23 64° N 20:40:23 64° N
SPOT 5 3.7 20:43:03 43° ENE 20:43:03 43° ENE 20:47:47 10° N
Meteor 1-12 Rocket 4.4 20:40:16 22° SSW 20:44:18 80° WNW 20:50:21 10° N
Cosmos 1400 Rocket 4.4 20:42:44 11° SW 20:46:18 35° WNW 20:50:05 10° N
CARTOSAT-1 4.4 20:51:06 44° NNE 20:51:06 44° NNE 20:54:14 10° N
USA 281 3.2 20:43:23 10° NNE 20:49:59 82° WNW 20:56:33 10° SSW
Spot 2 Rocket 3.6 20:51:41 61° NE 20:51:41 61° NE 20:56:13 10° N
Cosmos 1674 4.4 20:49:20 10° NNW 20:52:29 27° W 20:52:47 26° W
SL-8 Rocket 3.8 20:52:19 63° SSE 20:53:19 78° E 20:59:39 10° NNE
Meteor 1-24 Rocket 3.7 20:48:03 10° N 20:52:51 60° NE 20:52:51 60° NE
ATLAS CENTAUR R/B 1.9 20:49:04 10° NW 20:53:17 65° W 20:53:17 65° W
USA 306 3.9 20:51:17 10° WNW 20:55:14 42° N 20:55:14 42° N
Meteor 1-15 Rocket 4.0 20:56:17 80° S 20:56:36 89° ESE 21:02:14 10° NNE
Cosmos 1727 Rocket 4.1 20:50:52 10° N 20:57:07 57° ENE 20:57:07 57° ENE
USA 308 3.9 20:53:29 10° WNW 20:57:22 42° NNW 20:57:22 42° NNW
Inspiration4 4.3 20:59:29 10° WSW 21:01:35 28° WSW 21:01:35 28° WSW
Cosmos 2341 Rocket 4.2 21:03:33 39° SSW 21:06:00 72° WNW 21:12:23 10° N
Cosmos 158 Rocket 4.2 21:05:53 10° NNW 21:10:10 62° NNW 21:10:10 62° NNW
Meteor 2-5 Rocket 3.7 21:07:54 10° NNW 21:13:17 75° W 21:13:17 75° W
SPOT 3 Rocket 4.4 21:16:41 42° WSW 21:17:06 43° W 21:22:01 10° NNW
Resurs 01 Rocket 3.3 21:17:56 26° W 21:18:14 27° W 21:21:59 10° NW
SJ 16-02 3.6 21:27:03 19° NNE 21:27:03 19° NNE 21:28:19 10° NNE
Cosmos 1833 4.4 21:21:20 10° NNW 21:26:13 66° NW 21:26:13 66° NW
Cosmos 2297 Rocket 4.0 21:24:01 10° N 21:28:14 21° NE 21:28:14 21° NE
Cosmos 2218 Rocket 4.0 21:29:22 69° W 21:29:41 70° WNW 21:35:52 10° N
ARIANE 5 R/B 4.2 21:32:27 33° NNW 21:32:27 33° NNW 21:34:58 10° NNW
Cosmos 2366 rocket 4.1 21:31:14 69° W 21:31:29 70° WNW 21:37:38 10° N
Terra 3.1 21:35:10 37° N 21:35:10 37° N 21:38:04 10° NNW
ERS-1 Rocket 3.9 21:39:20 47° NW 21:39:20 47° NW 21:42:58 10° NNW
Cosmos 2227 Rocket 4.0 21:44:48 10° N 21:48:50 22° NE 21:48:50 22° NE
Cosmos 2369 Rocket 3.0 21:54:02 49° NNW 21:54:02 49° NNW 21:58:56 10° NNE
Lacrosse 5 rocket 4.2 22:02:48 10° WNW 22:03:42 15° WNW 22:03:42 15° WNW
Cosmos 1943 Rocket 4.3 22:08:04 10° W 22:12:30 24° NW 22:16:59 10° N
CENTAUR R/B 4.0 22:53:55 31° NE 22:53:55 31° NE 22:57:30 10° NE
SJ 16-02 4.4 23:04:00 12° NW 23:04:00 12° NW 23:05:10 10° NNW
Cosmos 2297 Rocket 3.9 23:07:27 10° NNW 23:10:01 28° NNW 23:10:01 28° NNW
Cosmos 2227 Rocket 4.1 23:28:18 10° NNW 23:30:38 26° NNW 23:30:38 26° NNW
